Wetterdaten: Donnerstag, 11.07.2013
Datum Zeit Temperatur Luftfeuchte Luftdruck Regen Wind Richtung Richtung Taupunkt Windchill Windben
11.07.2013 00:00 15,3 C 78 % 1019,5 hPa 0,0 l/m 1,1 km/h (1 Bft) O 90 11,5 C 15,2 C 0,0 km/h (0 Bft)
11.07.2013 00:05 15,2 C 78 % 1019,5 hPa 0,0 l/m 0,8 km/h (0 Bft) S-SO 157 11,4 C 15,2 C 0,0 km/h (0 Bft)
11.07.2013 00:10 15,1 C 79 % 1019,5 hPa 0,0 l/m 0,6 km/h (0 Bft) N-NO 22 11,5 C 15,1 C 0,0 km/h (0 Bft)
11.07.2013 00:15 15,0 C 79 % 1019,5 hPa 0,0 l/m 1,1 km/h (1 Bft) O 90 11,4 C 15,0 C 0,0 km/h (0 Bft)
11.07.2013 00:20 14,9 C 79 % 1019,5 hPa 0,0 l/m 1,1 km/h (1 Bft) O 90 11,3 C 14,8 C 3,7 km/h (1 Bft)
11.07.2013 00:25 14,8 C 79 % 1019,4 hPa 0,0 l/m 1,0 km/h (0 Bft) O 90 11,2 C 14,8 C 0,0 km/h (0 Bft)
11.07.2013 00:30 14,7 C 79 % 1019,4 hPa 0,0 l/m 0,6 km/h (0 Bft) O 90 11,1 C 14,6 C 0,0 km/h (0 Bft)
11.07.2013 00:35 14,7 C 79 % 1019,4 hPa 0,0 l/m 0,2 km/h (0 Bft) O 90 11,1 C 14,5 C 1,6 km/h (1 Bft)
11.07.2013 00:40 14,5 C 79 % 1019,4 hPa 0,0 l/m 0,0 km/h (0 Bft) NO 45 10,9 C 14,4 C 0,0 km/h (0 Bft)
11.07.2013 00:45 14,4 C 79 % 1019,6 hPa 0,0 l/m 0,0 km/h (0 Bft) NO 45 10,8 C 14,2 C 0,0 km/h (0 Bft)
11.07.2013 00:50 14,2 C 79 % 1019,6 hPa 0,0 l/m 0,0 km/h (0 Bft) SO 135 10,6 C 14,0 C 0,0 km/h (0 Bft)
11.07.2013 00:55 14,3 C 79 % 1019,6 hPa 0,0 l/m 0,6 km/h (0 Bft) NO 45 10,7 C 14,0 C 3,7 km/h (1 Bft)
11.07.2013 01:00 14,8 C 80 % 1019,6 hPa 0,0 l/m 1,4 km/h (1 Bft) O-NO 67 11,4 C 14,4 C 4,5 km/h (1 Bft)
11.07.2013 01:05 15,1 C 80 % 1019,8 hPa 0,0 l/m 2,3 km/h (1 Bft) O-SO 112 11,7 C 14,5 C 1,8 km/h (1 Bft)
11.07.2013 01:10 15,5 C 79 % 1019,8 hPa 0,0 l/m 4,0 km/h (1 Bft) O-SO 112 11,9 C 14,9 C 7,1 km/h (2 Bft)
11.07.2013 01:15 15,8 C 78 % 1019,8 hPa 0,0 l/m 4,7 km/h (1 Bft) NO 45 12,0 C 15,3 C 2,3 km/h (1 Bft)
11.07.2013 01:20 15,6 C 78 % 1019,8 hPa 0,0 l/m 2,6 km/h (1 Bft) NO 45 11,8 C 15,4 C 8,2 km/h (2 Bft)
11.07.2013 01:25 15,6 C 78 % 1019,9 hPa 0,0 l/m 1,6 km/h (1 Bft) O-NO 67 11,8 C 15,3 C 4,0 km/h (1 Bft)
11.07.2013 01:30 15,8 C 78 % 1019,9 hPa 0,0 l/m 2,7 km/h (1 Bft) O-NO 67 12,0 C 15,3 C 4,7 km/h (1 Bft)
11.07.2013 01:35 16,1 C 77 % 1019,9 hPa 0,0 l/m 3,2 km/h (1 Bft) O 90 12,1 C 15,6 C 1,6 km/h (1 Bft)
11.07.2013 01:40 16,1 C 77 % 1019,9 hPa 0,0 l/m 2,7 km/h (1 Bft) O 90 12,1 C 15,8 C 3,4 km/h (1 Bft)
11.07.2013 01:45 16,3 C 76 % 1019,8 hPa 0,0 l/m 1,8 km/h (1 Bft) O-SO 112 12,1 C 15,9 C 0,0 km/h (0 Bft)
11.07.2013 01:50 16,2 C 76 % 1019,8 hPa 0,0 l/m 2,1 km/h (1 Bft) O-NO 67 12,0 C 15,9 C 5,3 km/h (1 Bft)
11.07.2013 01:55 16,0 C 76 % 1019,8 hPa 0,0 l/m 1,3 km/h (1 Bft) W-SW 247 11,8 C 15,9 C 0,0 km/h (0 Bft)
11.07.2013 02:00 15,9 C 77 % 1019,8 hPa 0,0 l/m 2,1 km/h (1 Bft) S 180 11,9 C 15,8 C 0,0 km/h (0 Bft)
11.07.2013 02:05 15,5 C 78 % 1019,8 hPa 0,0 l/m 1,9 km/h (1 Bft) O-NO 67 11,7 C 15,6 C 3,1 km/h (1 Bft)
11.07.2013 02:10 15,3 C 79 % 1019,8 hPa 0,0 l/m 1,3 km/h (1 Bft) W-SW 247 11,7 C 15,4 C 2,3 km/h (1 Bft)
11.07.2013 02:15 15,2 C 79 % 1019,8 hPa 0,0 l/m 1,6 km/h (1 Bft) O 90 11,6 C 15,2 C 3,1 km/h (1 Bft)
11.07.2013 02:20 15,3 C 79 % 1019,8 hPa 0,0 l/m 1,3 km/h (1 Bft) O 90 11,7 C 15,1 C 0,0 km/h (0 Bft)
11.07.2013 02:25 15,5 C 79 % 1019,6 hPa 0,0 l/m 0,8 km/h (0 Bft) S-SW 202 11,9 C 15,1 C 0,0 km/h (0 Bft)
11.07.2013 02:30 15,3 C 79 % 1019,6 hPa 0,0 l/m 0,2 km/h (0 Bft) W-SW 247 11,7 C 15,1 C 0,0 km/h (0 Bft)
11.07.2013 02:35 15,2 C 79 % 1019,6 hPa 0,0 l/m 0,0 km/h (0 Bft) W-SW 247 11,6 C 15,0 C 0,0 km/h (0 Bft)
11.07.2013 02:40 14,9 C 81 % 1019,6 hPa 0,0 l/m 1,1 km/h (1 Bft) O 90 11,7 C 14,8 C 2,9 km/h (1 Bft)
11.07.2013 02:45 15,0 C 82 % 1019,6 hPa 0,0 l/m 1,3 km/h (1 Bft) O 90 12,0 C 14,8 C 1,8 km/h (1 Bft)
11.07.2013 02:50 14,9 C 82 % 1019,6 hPa 0,0 l/m 0,8 km/h (0 Bft) O 90 11,9 C 14,8 C 0,0 km/h (0 Bft)
11.07.2013 02:55 14,9 C 82 % 1019,6 hPa 0,0 l/m 0,2 km/h (0 Bft) O 90 11,9 C 14,8 C 0,0 km/h (0 Bft)
11.07.2013 03:00 15,0 C 82 % 1019,6 hPa 0,0 l/m 0,2 km/h (0 Bft) O 90 12,0 C 14,6 C 1,6 km/h (1 Bft)
11.07.2013 03:05 15,1 C 82 % 1019,5 hPa 0,0 l/m 1,0 km/h (0 Bft) O-NO 67 12,0 C 14,7 C 3,1 km/h (1 Bft)
11.07.2013 03:10 15,1 C 82 % 1019,5 hPa 0,0 l/m 1,4 km/h (1 Bft) SW 225 12,0 C 14,8 C 1,8 km/h (1 Bft)
11.07.2013 03:15 14,9 C 83 % 1019,5 hPa 0,0 l/m 1,0 km/h (0 Bft) S 180 12,0 C 14,8 C 0,0 km/h (0 Bft)
11.07.2013 03:20 15,1 C 83 % 1019,5 hPa 0,0 l/m 0,5 km/h (0 Bft) NO 45 12,2 C 14,8 C 2,9 km/h (1 Bft)
11.07.2013 03:25 15,3 C 82 % 1019,6 hPa 0,0 l/m 0,8 km/h (0 Bft) NO 45 12,2 C 14,9 C 0,0 km/h (0 Bft)
11.07.2013 03:30 15,2 C 82 % 1019,6 hPa 0,0 l/m 0,3 km/h (0 Bft) O-NO 67 12,1 C 14,9 C 0,0 km/h (0 Bft)
11.07.2013 03:35 15,1 C 81 % 1019,6 hPa 0,0 l/m 0,2 km/h (0 Bft) SW 225 11,9 C 14,8 C 1,6 km/h (1 Bft)
11.07.2013 03:40 14,5 C 82 % 1019,6 hPa 0,0 l/m 0,6 km/h (0 Bft) W 270 11,5 C 14,5 C 2,9 km/h (1 Bft)
11.07.2013 03:45 14,6 C 83 % 1019,2 hPa 0,0 l/m 1,6 km/h (1 Bft) O-SO 112 11,7 C 14,4 C 2,4 km/h (1 Bft)
11.07.2013 03:50 14,3 C 83 % 1019,2 hPa 0,0 l/m 1,6 km/h (1 Bft) N 360 11,5 C 14,1 C 0,0 km/h (0 Bft)
11.07.2013 03:55 14,1 C 83 % 1019,2 hPa 0,0 l/m 0,8 km/h (0 Bft) S 180 11,3 C 13,9 C 0,0 km/h (0 Bft)
11.07.2013 04:00 14,0 C 83 % 1019,2 hPa 0,0 l/m 0,2 km/h (0 Bft) S 180 11,2 C 13,6 C 0,0 km/h (0 Bft)
11.07.2013 04:05 14,1 C 84 % 1019,2 hPa 0,0 l/m 0,6 km/h (0 Bft) O-SO 112 11,4 C 13,5 C 1,8 km/h (1 Bft)
11.07.2013 04:10 14,3 C 83 % 1019,2 hPa 0,0 l/m 1,6 km/h (1 Bft) W 270 11,5 C 13,6 C 2,7 km/h (1 Bft)
11.07.2013 04:15 14,1 C 83 % 1019,2 hPa 0,0 l/m 1,4 km/h (1 Bft) O-NO 67 11,3 C 13,6 C 2,4 km/h (1 Bft)
11.07.2013 04:20 14,1 C 83 % 1019,2 hPa 0,0 l/m 1,3 km/h (1 Bft) O-SO 112 11,3 C 13,4 C 0,0 km/h (0 Bft)
11.07.2013 04:25 14,2 C 83 % 1019,1 hPa 0,0 l/m 2,1 km/h (1 Bft) O 90 11,4 C 13,4 C 3,5 km/h (1 Bft)
11.07.2013 04:30 13,9 C 83 % 1019,1 hPa 0,0 l/m 3,1 km/h (1 Bft) NO 45 11,1 C 13,4 C 4,2 km/h (1 Bft)
11.07.2013 04:35 13,9 C 83 % 1019,1 hPa 0,0 l/m 3,4 km/h (1 Bft) S 180 11,1 C 13,4 C 3,2 km/h (1 Bft)
11.07.2013 04:40 13,2 C 84 % 1019,1 hPa 0,0 l/m 2,7 km/h (1 Bft) NO 45 10,6 C 12,9 C 3,2 km/h (1 Bft)
11.07.2013 04:45 13,3 C 84 % 1019,3 hPa 0,0 l/m 2,1 km/h (1 Bft) O-NO 67 10,7 C 12,8 C 4,2 km/h (1 Bft)
11.07.2013 04:50 13,1 C 84 % 1019,3 hPa 0,0 l/m 1,6 km/h (1 Bft) SO 135 10,5 C 12,7 C 0,0 km/h (0 Bft)
11.07.2013 04:55 12,7 C 85 % 1019,3 hPa 0,0 l/m 1,0 km/h (0 Bft) SO 135 10,2 C 12,5 C 0,0 km/h (0 Bft)
11.07.2013 05:00 13,2 C 85 % 1019,3 hPa 0,0 l/m 1,4 km/h (1 Bft) O 90 10,7 C 12,5 C 2,7 km/h (1 Bft)
11.07.2013 05:05 13,5 C 86 % 1019,0 hPa 0,0 l/m 2,6 km/h (1 Bft) O 90 11,2 C 12,7 C 3,4 km/h (1 Bft)
11.07.2013 05:10 13,2 C 85 % 1019,0 hPa 0,0 l/m 2,1 km/h (1 Bft) O 90 10,7 C 12,8 C 0,0 km/h (0 Bft)
11.07.2013 05:15 13,0 C 85 % 1019,0 hPa 0,0 l/m 1,0 km/h (0 Bft) NO 45 10,5 C 12,6 C 0,0 km/h (0 Bft)
11.07.2013 05:20 12,5 C 86 % 1019,0 hPa 0,0 l/m 0,0 km/h (0 Bft) NO 45 10,2 C 12,2 C 0,0 km/h (0 Bft)
11.07.2013 05:25 12,7 C 86 % 1019,0 hPa 0,0 l/m 0,6 km/h (0 Bft) O 90 10,4 C 12,1 C 2,1 km/h (1 Bft)
11.07.2013 05:30 13,2 C 86 % 1019,0 hPa 0,0 l/m 2,1 km/h (1 Bft) NO 45 10,9 C 12,3 C 2,4 km/h (1 Bft)
11.07.2013 05:35 13,2 C 86 % 1019,0 hPa 0,0 l/m 2,6 km/h (1 Bft) O 90 10,9 C 12,4 C 2,6 km/h (1 Bft)
11.07.2013 05:40 13,3 C 86 % 1019,0 hPa 0,0 l/m 2,7 km/h (1 Bft) O 90 11,0 C 12,5 C 3,9 km/h (1 Bft)
11.07.2013 05:45 13,2 C 86 % 1018,9 hPa 0,0 l/m 2,7 km/h (1 Bft) O-SO 112 10,9 C 12,6 C 2,1 km/h (1 Bft)
11.07.2013 05:50 12,8 C 86 % 1018,9 hPa 0,0 l/m 1,4 km/h (1 Bft) O-SO 112 10,5 C 12,4 C 0,0 km/h (0 Bft)
11.07.2013 05:55 12,5 C 86 % 1018,9 hPa 0,0 l/m 0,5 km/h (0 Bft) O-SO 112 10,2 C 12,2 C 0,0 km/h (0 Bft)
11.07.2013 06:00 12,7 C 86 % 1018,9 hPa 0,0 l/m 0,3 km/h (0 Bft) NO 45 10,4 C 12,2 C 0,0 km/h (0 Bft)
11.07.2013 06:05 13,2 C 86 % 1019,1 hPa 0,0 l/m 0,8 km/h (0 Bft) O-SO 112 10,9 C 12,4 C 0,0 km/h (0 Bft)
11.07.2013 06:10 13,2 C 86 % 1019,1 hPa 0,0 l/m 0,5 km/h (0 Bft) NO 45 10,9 C 12,6 C 0,0 km/h (0 Bft)
11.07.2013 06:15 13,1 C 86 % 1019,1 hPa 0,0 l/m 0,0 km/h (0 Bft) O-SO 112 10,8 C 12,6 C 0,0 km/h (0 Bft)
11.07.2013 06:20 13,0 C 86 % 1019,1 hPa 0,0 l/m 0,0 km/h (0 Bft) O-SO 112 10,7 C 12,6 C 0,0 km/h (0 Bft)
11.07.2013 06:25 12,8 C 86 % 1019,4 hPa 0,0 l/m 0,0 km/h (0 Bft) SO 135 10,5 C 12,5 C 0,0 km/h (0 Bft)
11.07.2013 06:30 12,8 C 86 % 1019,4 hPa 0,0 l/m 0,0 km/h (0 Bft) O 90 10,5 C 12,4 C 0,0 km/h (0 Bft)
11.07.2013 06:35 13,0 C 86 % 1019,4 hPa 0,0 l/m 0,0 km/h (0 Bft) O 90 10,7 C 12,4 C 0,0 km/h (0 Bft)
11.07.2013 06:40 13,3 C 86 % 1019,4 hPa 0,0 l/m 0,0 km/h (0 Bft) O-SO 112 11,0 C 12,8 C 0,0 km/h (0 Bft)
11.07.2013 06:45 13,4 C 86 % 1019,2 hPa 0,0 l/m 0,0 km/h (0 Bft) O 90 11,1 C 12,9 C 0,0 km/h (0 Bft)
11.07.2013 06:50 13,6 C 86 % 1019,2 hPa 0,0 l/m 0,0 km/h (0 Bft) NO 45 11,3 C 13,2 C 0,0 km/h (0 Bft)
11.07.2013 06:55 13,8 C 86 % 1019,2 hPa 0,0 l/m 0,0 km/h (0 Bft) NO 45 11,5 C 13,4 C 0,0 km/h (0 Bft)
11.07.2013 07:00 14,0 C 86 % 1019,2 hPa 0,0 l/m 0,0 km/h (0 Bft) NO 45 11,7 C 13,8 C 0,0 km/h (0 Bft)
11.07.2013 07:05 14,1 C 86 % 1019,3 hPa 0,0 l/m 0,0 km/h (0 Bft) NO 45 11,8 C 14,0 C 0,0 km/h (0 Bft)
11.07.2013 07:10 14,3 C 86 % 1019,3 hPa 0,0 l/m 0,0 km/h (0 Bft) O-NO 67 12,0 C 14,3 C 0,0 km/h (0 Bft)
11.07.2013 07:15 14,4 C 85 % 1019,3 hPa 0,0 l/m 0,0 km/h (0 Bft) O 90 11,9 C 14,5 C 0,0 km/h (0 Bft)
11.07.2013 07:20 14,6 C 85 % 1019,3 hPa 0,0 l/m 0,0 km/h (0 Bft) SO 135 12,1 C 14,7 C 0,0 km/h (0 Bft)
11.07.2013 07:25 14,6 C 84 % 1019,4 hPa 0,0 l/m 0,0 km/h (0 Bft) SO 135 11,9 C 14,8 C 0,0 km/h (0 Bft)
11.07.2013 07:30 14,6 C 84 % 1019,4 hPa 0,0 l/m 0,0 km/h (0 Bft) O-SO 112 11,9 C 15,0 C 0,0 km/h (0 Bft)
11.07.2013 07:35 14,8 C 84 % 1019,4 hPa 0,0 l/m 0,0 km/h (0 Bft) SO 135 12,1 C 15,1 C 0,0 km/h (0 Bft)
11.07.2013 07:40 15,2 C 83 % 1019,4 hPa 0,0 l/m 0,0 km/h (0 Bft) SO 135 12,3 C 15,3 C 0,0 km/h (0 Bft)
11.07.2013 07:45 15,2 C 83 % 1019,6 hPa 0,0 l/m 0,0 km/h (0 Bft) SO 135 12,3 C 15,5 C 0,0 km/h (0 Bft)
11.07.2013 07:50 15,2 C 82 % 1019,6 hPa 0,0 l/m 0,0 km/h (0 Bft) SO 135 12,1 C 15,6 C 1,6 km/h (1 Bft)
11.07.2013 07:55 15,2 C 82 % 1019,6 hPa 0,0 l/m 0,0 km/h (0 Bft) SO 135 12,1 C 15,7 C 0,0 km/h (0 Bft)
11.07.2013 08:00 15,4 C 82 % 1019,6 hPa 0,0 l/m 0,0 km/h (0 Bft) S-SO 157 12,3 C 15,8 C 0,0 km/h (0 Bft)
11.07.2013 08:05 15,5 C 82 % 1019,5 hPa 0,0 l/m 0,0 km/h (0 Bft) S-SO 157 12,4 C 15,9 C 0,0 km/h (0 Bft)
11.07.2013 08:10 15,6 C 81 % 1019,5 hPa 0,0 l/m 0,2 km/h (0 Bft) W-SW 247 12,3 C 16,0 C 0,0 km/h (0 Bft)
11.07.2013 08:15 15,6 C 81 % 1019,5 hPa 0,0 l/m 0,6 km/h (0 Bft) S-SW 202 12,3 C 16,1 C 2,6 km/h (1 Bft)
11.07.2013 08:20 15,7 C 81 % 1019,5 hPa 0,0 l/m 1,0 km/h (0 Bft) W-SW 247 12,4 C 16,2 C 0,0 km/h (0 Bft)
11.07.2013 08:25 15,7 C 81 % 1019,6 hPa 0,0 l/m 0,6 km/h (0 Bft) W-SW 247 12,4 C 16,1 C 0,0 km/h (0 Bft)
11.07.2013 08:30 15,7 C 81 % 1019,6 hPa 0,0 l/m 0,6 km/h (0 Bft) S-SW 202 12,4 C 16,0 C 1,6 km/h (1 Bft)
11.07.2013 08:35 15,8 C 81 % 1019,6 hPa 0,0 l/m 0,6 km/h (0 Bft) W-NW 292 12,5 C 16,0 C 2,6 km/h (1 Bft)
11.07.2013 08:40 15,7 C 80 % 1019,6 hPa 0,0 l/m 0,6 km/h (0 Bft) W 270 12,3 C 16,0 C 0,0 km/h (0 Bft)
11.07.2013 08:45 15,8 C 80 % 1019,8 hPa 0,0 l/m 1,0 km/h (0 Bft) W 270 12,4 C 16,1 C 1,8 km/h (1 Bft)
11.07.2013 08:50 15,8 C 80 % 1019,8 hPa 0,0 l/m 1,3 km/h (1 Bft) S-SW 202 12,4 C 16,2 C 2,7 km/h (1 Bft)
11.07.2013 08:55 15,9 C 80 % 1019,8 hPa 0,0 l/m 1,1 km/h (1 Bft) W-SW 247 12,5 C 16,3 C 0,0 km/h (0 Bft)
11.07.2013 09:00 15,9 C 80 % 1019,8 hPa 0,0 l/m 0,6 km/h (0 Bft) O 90 12,5 C 16,3 C 2,3 km/h (1 Bft)
11.07.2013 09:05 15,7 C 80 % 1020,1 hPa 0,0 l/m 1,1 km/h (1 Bft) W-SW 247 12,3 C 16,2 C 3,1 km/h (1 Bft)
11.07.2013 09:10 15,7 C 80 % 1020,1 hPa 0,0 l/m 1,8 km/h (1 Bft) W-SW 247 12,3 C 16,0 C 3,1 km/h (1 Bft)
11.07.2013 09:15 15,7 C 80 % 1020,1 hPa 0,0 l/m 1,9 km/h (1 Bft) W-NW 292 12,3 C 16,0 C 3,4 km/h (1 Bft)
11.07.2013 09:20 15,7 C 79 % 1020,1 hPa 0,0 l/m 1,9 km/h (1 Bft) N-NW 337 12,1 C 16,0 C 2,3 km/h (1 Bft)
11.07.2013 09:25 15,5 C 79 % 1019,8 hPa 0,0 l/m 1,9 km/h (1 Bft) W-NW 292 11,9 C 16,0 C 3,1 km/h (1 Bft)
11.07.2013 09:30 15,6 C 79 % 1019,8 hPa 0,0 l/m 1,8 km/h (1 Bft) W 270 12,0 C 16,0 C 3,1 km/h (1 Bft)
11.07.2013 09:35 15,8 C 79 % 1019,8 hPa 0,0 l/m 1,6 km/h (1 Bft) W-SW 247 12,2 C 16,0 C 2,3 km/h (1 Bft)
11.07.2013 09:40 16,1 C 79 % 1019,8 hPa 0,0 l/m 1,6 km/h (1 Bft) W-NW 292 12,5 C 16,2 C 0,0 km/h (0 Bft)
11.07.2013 09:45 16,1 C 78 % 1019,9 hPa 0,0 l/m 1,1 km/h (1 Bft) N 360 12,3 C 16,3 C 4,0 km/h (1 Bft)
11.07.2013 09:50 15,9 C 78 % 1019,9 hPa 0,0 l/m 2,1 km/h (1 Bft) N 360 12,1 C 16,5 C 3,5 km/h (1 Bft)
11.07.2013 09:55 15,9 C 78 % 1019,9 hPa 0,0 l/m 2,1 km/h (1 Bft) N 360 12,1 C 16,6 C 4,5 km/h (1 Bft)
11.07.2013 10:00 15,9 C 78 % 1019,9 hPa 0,0 l/m 0,8 km/h (0 Bft) N-NO 22 12,1 C 16,6 C 1,9 km/h (1 Bft)
11.07.2013 10:05 15,8 C 78 % 1019,9 hPa 0,0 l/m 0,6 km/h (0 Bft) N-NO 22 12,0 C 16,6 C 0,0 km/h (0 Bft)
11.07.2013 10:10 15,9 C 79 % 1019,9 hPa 0,0 l/m 0,6 km/h (0 Bft) N 360 12,3 C 16,6 C 1,8 km/h (1 Bft)
11.07.2013 10:15 15,9 C 79 % 1019,9 hPa 0,0 l/m 1,3 km/h (1 Bft) W-NW 292 12,3 C 16,6 C 3,1 km/h (1 Bft)
11.07.2013 10:20 16,0 C 78 % 1019,9 hPa 0,0 l/m 1,4 km/h (1 Bft) W 270 12,2 C 16,7 C 2,7 km/h (1 Bft)
11.07.2013 10:25 15,9 C 78 % 1020,0 hPa 0,0 l/m 1,9 km/h (1 Bft) W-NW 292 12,1 C 16,5 C 4,3 km/h (1 Bft)
11.07.2013 10:30 15,7 C 79 % 1020,0 hPa 0,0 l/m 1,9 km/h (1 Bft) N-NW 337 12,1 C 16,2 C 1,6 km/h (1 Bft)
11.07.2013 10:35 15,8 C 79 % 1020,0 hPa 0,0 l/m 1,3 km/h (1 Bft) W-NW 292 12,2 C 16,2 C 0,0 km/h (0 Bft)
11.07.2013 10:40 15,8 C 78 % 1020,0 hPa 0,0 l/m 1,3 km/h (1 Bft) N-NW 337 12,0 C 16,2 C 2,3 km/h (1 Bft)
11.07.2013 10:45 15,7 C 78 % 1020,0 hPa 0,0 l/m 1,4 km/h (1 Bft) N 360 11,9 C 16,2 C 1,8 km/h (1 Bft)
11.07.2013 10:50 15,7 C 79 % 1020,0 hPa 0,0 l/m 1,3 km/h (1 Bft) W-NW 292 12,1 C 16,0 C 4,7 km/h (1 Bft)
11.07.2013 10:55 15,5 C 79 % 1020,0 hPa 0,0 l/m 1,9 km/h (1 Bft) W 270 11,9 C 15,8 C 2,9 km/h (1 Bft)
11.07.2013 11:00 15,5 C 79 % 1020,0 hPa 0,0 l/m 2,9 km/h (1 Bft) W-SW 247 11,9 C 15,7 C 0,0 km/h (0 Bft)
11.07.2013 11:05 15,6 C 79 % 1020,2 hPa 0,0 l/m 2,1 km/h (1 Bft) W-SW 247 12,0 C 15,7 C 2,1 km/h (1 Bft)
11.07.2013 11:10 15,4 C 79 % 1020,2 hPa 0,0 l/m 1,8 km/h (1 Bft) W 270 11,8 C 15,6 C 4,8 km/h (1 Bft)
11.07.2013 11:15 15,3 C 80 % 1020,2 hPa 0,0 l/m 2,9 km/h (1 Bft) W-SW 247 11,9 C 15,5 C 4,3 km/h (1 Bft)
11.07.2013 11:20 15,5 C 81 % 1020,2 hPa 0,0 l/m 2,6 km/h (1 Bft) W-SW 247 12,3 C 15,5 C 1,8 km/h (1 Bft)
11.07.2013 11:25 15,5 C 81 % 1020,4 hPa 0,0 l/m 2,1 km/h (1 Bft) W 270 12,3 C 15,6 C 2,7 km/h (1 Bft)
11.07.2013 11:30 15,5 C 81 % 1020,4 hPa 0,0 l/m 1,8 km/h (1 Bft) S-SW 202 12,3 C 15,7 C 0,0 km/h (0 Bft)
11.07.2013 11:35 15,6 C 81 % 1020,4 hPa 0,0 l/m 0,6 km/h (0 Bft) S-SW 202 12,3 C 15,8 C 0,0 km/h (0 Bft)
11.07.2013 11:40 15,8 C 80 % 1020,4 hPa 0,0 l/m 0,0 km/h (0 Bft) W 270 12,4 C 16,2 C 0,0 km/h (0 Bft)
11.07.2013 11:45 15,9 C 80 % 1020,6 hPa 0,0 l/m 0,2 km/h (0 Bft) W-NW 292 12,5 C 16,5 C 2,1 km/h (1 Bft)
11.07.2013 11:50 16,5 C 79 % 1020,6 hPa 0,0 l/m 0,8 km/h (0 Bft) NW 315 12,8 C 17,0 C 1,9 km/h (1 Bft)
11.07.2013 11:55 16,6 C 78 % 1020,6 hPa 0,0 l/m 1,0 km/h (0 Bft) N-NW 337 12,7 C 17,3 C 0,0 km/h (0 Bft)
11.07.2013 12:00 16,4 C 78 % 1020,6 hPa 0,0 l/m 1,1 km/h (1 Bft) W-NW 292 12,6 C 17,5 C 2,6 km/h (1 Bft)
11.07.2013 12:05 16,6 C 78 % 1020,7 hPa 0,0 l/m 1,1 km/h (1 Bft) W-NW 292 12,7 C 17,5 C 2,3 km/h (1 Bft)
11.07.2013 12:10 17,0 C 77 % 1020,7 hPa 0,0 l/m 0,8 km/h (0 Bft) W 270 12,9 C 17,6 C 0,0 km/h (0 Bft)
11.07.2013 12:15 17,2 C 77 % 1020,7 hPa 0,0 l/m 1,0 km/h (0 Bft) W 270 13,1 C 17,8 C 1,9 km/h (1 Bft)
11.07.2013 12:20 17,1 C 76 % 1020,7 hPa 0,0 l/m 1,1 km/h (1 Bft) S 180 12,8 C 18,0 C 0,0 km/h (0 Bft)
11.07.2013 12:25 17,1 C 75 % 1021,1 hPa 0,0 l/m 1,1 km/h (1 Bft) W-NW 292 12,6 C 18,2 C 3,9 km/h (1 Bft)
11.07.2013 12:30 16,3 C 76 % 1021,1 hPa 0,0 l/m 2,9 km/h (1 Bft) W 270 12,1 C 17,7 C 10,0 km/h (2 Bft)
11.07.2013 12:35 16,2 C 77 % 1021,1 hPa 0,0 l/m 4,5 km/h (1 Bft) W-NW 292 12,2 C 17,1 C 2,7 km/h (1 Bft)
11.07.2013 12:40 16,7 C 76 % 1021,1 hPa 0,0 l/m 4,2 km/h (1 Bft) N-NW 337 12,4 C 17,4 C 4,7 km/h (1 Bft)
11.07.2013 12:45 17,1 C 76 % 1021,2 hPa 0,0 l/m 3,5 km/h (1 Bft) N-NW 337 12,8 C 17,8 C 5,1 km/h (1 Bft)
11.07.2013 12:50 17,4 C 74 % 1021,2 hPa 0,0 l/m 3,7 km/h (1 Bft) N-NW 337 12,7 C 18,6 C 5,1 km/h (1 Bft)
11.07.2013 12:55 17,6 C 74 % 1021,2 hPa 0,0 l/m 3,7 km/h (1 Bft) W-NW 292 12,9 C 19,1 C 4,2 km/h (1 Bft)
11.07.2013 13:00 16,8 C 74 % 1021,2 hPa 0,0 l/m 2,6 km/h (1 Bft) W 270 12,1 C 18,9 C 2,3 km/h (1 Bft)
11.07.2013 13:05 16,7 C 75 % 1021,2 hPa 0,0 l/m 2,4 km/h (1 Bft) W-NW 292 12,2 C 18,4 C 3,7 km/h (1 Bft)
11.07.2013 13:10 16,5 C 75 % 1021,2 hPa 0,0 l/m 2,6 km/h (1 Bft) N 360 12,1 C 18,0 C 4,3 km/h (1 Bft)
11.07.2013 13:15 16,4 C 76 % 1021,2 hPa 0,0 l/m 2,6 km/h (1 Bft) W 270 12,2 C 17,6 C 3,7 km/h (1 Bft)
11.07.2013 13:20 16,2 C 76 % 1021,2 hPa 0,0 l/m 2,9 km/h (1 Bft) W-NW 292 12,0 C 17,3 C 10,5 km/h (2 Bft)
11.07.2013 13:25 16,3 C 75 % 1020,8 hPa 0,0 l/m 3,4 km/h (1 Bft) W-SW 247 11,9 C 17,0 C 9,0 km/h (2 Bft)
11.07.2013 13:30 16,5 C 75 % 1020,8 hPa 0,0 l/m 4,3 km/h (1 Bft) W-NW 292 12,1 C 16,9 C 5,3 km/h (1 Bft)
11.07.2013 13:35 16,5 C 75 % 1020,8 hPa 0,0 l/m 4,5 km/h (1 Bft) W 270 12,1 C 17,0 C 6,4 km/h (2 Bft)
11.07.2013 13:40 16,2 C 76 % 1020,8 hPa 0,0 l/m 3,5 km/h (1 Bft) O-NO 67 12,0 C 16,8 C 3,5 km/h (1 Bft)
11.07.2013 13:45 16,0 C 76 % 1020,9 hPa 0,0 l/m 3,2 km/h (1 Bft) W-NW 292 11,8 C 16,8 C 4,0 km/h (1 Bft)
11.07.2013 13:50 16,0 C 76 % 1020,9 hPa 0,0 l/m 3,2 km/h (1 Bft) N 360 11,8 C 16,7 C 2,1 km/h (1 Bft)
11.07.2013 13:55 16,3 C 77 % 1020,9 hPa 0,0 l/m 3,1 km/h (1 Bft) W-SW 247 12,3 C 16,7 C 4,2 km/h (1 Bft)
11.07.2013 14:00 16,4 C 75 % 1020,9 hPa 0,0 l/m 2,7 km/h (1 Bft) W 270 12,0 C 16,8 C 4,7 km/h (1 Bft)
11.07.2013 14:05 16,3 C 75 % 1020,9 hPa 0,0 l/m 3,4 km/h (1 Bft) W-SW 247 11,9 C 16,8 C 3,4 km/h (1 Bft)
11.07.2013 14:10 16,3 C 74 % 1020,9 hPa 0,0 l/m 4,2 km/h (1 Bft) W-SW 247 11,7 C 16,7 C 8,0 km/h (2 Bft)
11.07.2013 14:15 16,3 C 74 % 1020,9 hPa 0,0 l/m 3,9 km/h (1 Bft) W-SW 247 11,7 C 16,7 C 5,8 km/h (2 Bft)
11.07.2013 14:20 16,4 C 73 % 1020,9 hPa 0,0 l/m 3,5 km/h (1 Bft) W-NW 292 11,5 C 16,8 C 3,1 km/h (1 Bft)
11.07.2013 14:25 16,7 C 73 % 1020,9 hPa 0,0 l/m 2,6 km/h (1 Bft) W 270 11,8 C 17,0 C 1,8 km/h (1 Bft)
11.07.2013 14:30 16,6 C 74 % 1020,9 hPa 0,0 l/m 1,6 km/h (1 Bft) NW 315 11,9 C 17,2 C 2,6 km/h (1 Bft)
11.07.2013 14:35 16,7 C 74 % 1020,9 hPa 0,0 l/m 1,1 km/h (1 Bft) W-NW 292 12,0 C 17,2 C 0,0 km/h (0 Bft)
11.07.2013 14:40 16,4 C 75 % 1020,9 hPa 0,0 l/m 1,0 km/h (0 Bft) N-NO 22 12,0 C 17,3 C 2,9 km/h (1 Bft)
11.07.2013 14:45 16,4 C 75 % 1020,8 hPa 0,0 l/m 1,1 km/h (1 Bft) NO 45 12,0 C 17,2 C 0,0 km/h (0 Bft)
11.07.2013 14:50 16,3 C 76 % 1020,8 hPa 0,0 l/m 1,0 km/h (0 Bft) N 360 12,1 C 17,1 C 3,4 km/h (1 Bft)
11.07.2013 14:55 16,3 C 74 % 1020,8 hPa 0,0 l/m 0,8 km/h (0 Bft) NO 45 11,7 C 17,1 C 0,0 km/h (0 Bft)
11.07.2013 15:00 16,7 C 74 % 1020,8 hPa 0,0 l/m 1,3 km/h (1 Bft) W-SW 247 12,0 C 17,4 C 3,1 km/h (1 Bft)
11.07.2013 15:05 16,6 C 73 % 1020,9 hPa 0,0 l/m 1,4 km/h (1 Bft) NO 45 11,7 C 17,4 C 2,7 km/h (1 Bft)
11.07.2013 15:10 16,8 C 74 % 1020,9 hPa 0,0 l/m 1,8 km/h (1 Bft) N 360 12,1 C 17,6 C 3,2 km/h (1 Bft)
11.07.2013 15:15 16,9 C 73 % 1020,9 hPa 0,0 l/m 0,8 km/h (0 Bft) N-NO 22 12,0 C 17,8 C 0,0 km/h (0 Bft)
11.07.2013 15:20 17,5 C 73 % 1020,9 hPa 0,0 l/m 0,5 km/h (0 Bft) O-SO 112 12,6 C 18,3 C 0,0 km/h (0 Bft)
11.07.2013 15:25 17,5 C 70 % 1021,6 hPa 0,0 l/m 1,0 km/h (0 Bft) S 180 12,0 C 18,6 C 1,6 km/h (1 Bft)
11.07.2013 15:30 18,2 C 69 % 1021,6 hPa 0,0 l/m 1,6 km/h (1 Bft) O-NO 67 12,4 C 19,1 C 1,8 km/h (1 Bft)
11.07.2013 15:35 18,1 C 68 % 1021,6 hPa 0,0 l/m 1,1 km/h (1 Bft) S-SW 202 12,1 C 19,4 C 0,0 km/h (0 Bft)
11.07.2013 15:40 18,5 C 67 % 1021,6 hPa 0,0 l/m 1,4 km/h (1 Bft) S 180 12,3 C 19,6 C 2,4 km/h (1 Bft)
11.07.2013 15:45 19,4 C 66 % 1021,6 hPa 0,0 l/m 1,8 km/h (1 Bft) W-SW 247 12,9 C 20,2 C 2,7 km/h (1 Bft)
11.07.2013 15:50 19,0 C 65 % 1021,6 hPa 0,0 l/m 1,8 km/h (1 Bft) W-SW 247 12,3 C 21,2 C 2,1 km/h (1 Bft)
11.07.2013 15:55 19,2 C 65 % 1021,6 hPa 0,0 l/m 1,6 km/h (1 Bft) N-NW 337 12,5 C 21,3 C 4,3 km/h (1 Bft)
11.07.2013 16:00 19,1 C 64 % 1021,6 hPa 0,0 l/m 2,4 km/h (1 Bft) W-SW 247 12,1 C 21,1 C 5,6 km/h (1 Bft)
11.07.2013 16:05 19,1 C 64 % 1021,6 hPa 0,0 l/m 2,7 km/h (1 Bft) S-SO 157 12,1 C 20,8 C 0,0 km/h (0 Bft)
11.07.2013 16:10 19,4 C 61 % 1021,6 hPa 0,0 l/m 2,6 km/h (1 Bft) W-NW 292 11,7 C 21,1 C 3,1 km/h (1 Bft)
11.07.2013 16:15 18,8 C 60 % 1021,6 hPa 0,0 l/m 1,9 km/h (1 Bft) N-NO 22 10,9 C 21,1 C 2,4 km/h (1 Bft)
11.07.2013 16:20 19,3 C 63 % 1021,6 hPa 0,0 l/m 1,8 km/h (1 Bft) W-SW 247 12,1 C 21,3 C 1,9 km/h (1 Bft)
11.07.2013 16:25 19,0 C 62 % 1021,6 hPa 0,0 l/m 1,6 km/h (1 Bft) W-NW 292 11,6 C 21,4 C 4,5 km/h (1 Bft)
11.07.2013 16:30 19,0 C 62 % 1021,6 hPa 0,0 l/m 2,4 km/h (1 Bft) NW 315 11,6 C 21,2 C 2,4 km/h (1 Bft)
11.07.2013 16:35 19,5 C 63 % 1021,6 hPa 0,0 l/m 1,9 km/h (1 Bft) W 270 12,3 C 21,1 C 1,6 km/h (1 Bft)
11.07.2013 16:40 19,3 C 60 % 1021,6 hPa 0,0 l/m 1,1 km/h (1 Bft) W-SW 247 11,3 C 21,7 C 2,4 km/h (1 Bft)
11.07.2013 16:45 19,8 C 60 % 1021,9 hPa 0,0 l/m 1,8 km/h (1 Bft) W-SW 247 11,8 C 21,7 C 5,8 km/h (2 Bft)
11.07.2013 16:50 19,7 C 61 % 1021,9 hPa 0,0 l/m 2,1 km/h (1 Bft) S 180 12,0 C 21,4 C 1,8 km/h (1 Bft)
11.07.2013 16:55 19,4 C 60 % 1021,9 hPa 0,0 l/m 2,1 km/h (1 Bft) S 180 11,4 C 21,2 C 3,1 km/h (1 Bft)
11.07.2013 17:00 19,3 C 60 % 1021,9 hPa 0,0 l/m 2,4 km/h (1 Bft) W-NW 292 11,3 C 20,7 C 5,1 km/h (1 Bft)
11.07.2013 17:05 19,1 C 61 % 1021,6 hPa 0,0 l/m 2,9 km/h (1 Bft) S-SW 202 11,4 C 20,5 C 3,2 km/h (1 Bft)
11.07.2013 17:10 19,1 C 62 % 1021,6 hPa 0,0 l/m 2,6 km/h (1 Bft) W-SW 247 11,6 C 20,3 C 5,5 km/h (1 Bft)
11.07.2013 17:15 18,7 C 61 % 1021,6 hPa 0,0 l/m 2,7 km/h (1 Bft) W-SW 247 11,0 C 20,0 C 3,2 km/h (1 Bft)
11.07.2013 17:20 18,6 C 62 % 1021,6 hPa 0,0 l/m 3,2 km/h (1 Bft) S 180 11,2 C 19,7 C 3,7 km/h (1 Bft)
11.07.2013 17:25 19,5 C 63 % 1021,2 hPa 0,0 l/m 2,6 km/h (1 Bft) W-NW 292 12,3 C 19,7 C 0,0 km/h (0 Bft)
11.07.2013 17:30 19,9 C 60 % 1021,2 hPa 0,0 l/m 2,7 km/h (1 Bft) S 180 11,9 C 21,0 C 5,3 km/h (1 Bft)
11.07.2013 17:35 19,5 C 59 % 1021,2 hPa 0,0 l/m 3,4 km/h (1 Bft) S-SO 157 11,3 C 21,3 C 4,5 km/h (1 Bft)
11.07.2013 17:40 19,8 C 59 % 1021,2 hPa 0,0 l/m 2,6 km/h (1 Bft) W-NW 292 11,6 C 21,7 C 0,0 km/h (0 Bft)
11.07.2013 17:45 19,1 C 58 % 1021,6 hPa 0,0 l/m 1,6 km/h (1 Bft) N 360 10,6 C 22,2 C 4,7 km/h (1 Bft)
11.07.2013 17:50 18,7 C 60 % 1021,6 hPa 0,0 l/m 1,0 km/h (0 Bft) W-NW 292 10,8 C 21,9 C 1,6 km/h (1 Bft)
11.07.2013 17:55 18,9 C 62 % 1021,6 hPa 0,0 l/m 1,1 km/h (1 Bft) W-NW 292 11,5 C 21,7 C 4,7 km/h (1 Bft)
11.07.2013 18:00 18,4 C 61 % 1021,6 hPa 0,0 l/m 1,3 km/h (1 Bft) O-NO 67 10,7 C 20,9 C 1,9 km/h (1 Bft)
11.07.2013 18:05 18,2 C 64 % 1021,2 hPa 0,0 l/m 1,6 km/h (1 Bft) N 360 11,3 C 20,6 C 2,4 km/h (1 Bft)
11.07.2013 18:10 18,7 C 65 % 1021,2 hPa 0,0 l/m 1,4 km/h (1 Bft) NO 45 12,0 C 20,4 C 2,3 km/h (1 Bft)
11.07.2013 18:15 18,6 C 65 % 1021,2 hPa 0,0 l/m 1,4 km/h (1 Bft) O-NO 67 11,9 C 20,3 C 2,7 km/h (1 Bft)
11.07.2013 18:20 18,4 C 66 % 1021,2 hPa 0,0 l/m 1,4 km/h (1 Bft) N 360 11,9 C 20,1 C 1,9 km/h (1 Bft)
11.07.2013 18:25 18,3 C 67 % 1021,0 hPa 0,0 l/m 1,3 km/h (1 Bft) N-NO 22 12,1 C 20,1 C 1,6 km/h (1 Bft)
11.07.2013 18:30 18,4 C 66 % 1021,0 hPa 0,0 l/m 1,6 km/h (1 Bft) O 90 11,9 C 19,9 C 3,1 km/h (1 Bft)
11.07.2013 18:35 18,4 C 66 % 1021,0 hPa 0,0 l/m 1,8 km/h (1 Bft) N-NO 22 11,9 C 19,9 C 3,2 km/h (1 Bft)
11.07.2013 18:40 18,1 C 67 % 1021,0 hPa 0,0 l/m 1,3 km/h (1 Bft) NO 45 11,9 C 19,7 C 2,6 km/h (1 Bft)
11.07.2013 18:45 18,1 C 67 % 1021,1 hPa 0,0 l/m 1,4 km/h (1 Bft) O-NO 67 11,9 C 19,6 C 2,6 km/h (1 Bft)
11.07.2013 18:50 18,4 C 67 % 1021,1 hPa 0,0 l/m 1,6 km/h (1 Bft) N-NO 22 12,2 C 19,7 C 0,0 km/h (0 Bft)
11.07.2013 18:55 18,6 C 67 % 1021,1 hPa 0,0 l/m 1,0 km/h (0 Bft) NO 45 12,3 C 20,3 C 2,3 km/h (1 Bft)
11.07.2013 19:00 18,2 C 67 % 1021,1 hPa 0,0 l/m 1,3 km/h (1 Bft) O 90 12,0 C 20,4 C 3,4 km/h (1 Bft)
11.07.2013 19:05 17,9 C 67 % 1021,0 hPa 0,0 l/m 1,8 km/h (1 Bft) O 90 11,7 C 20,1 C 2,4 km/h (1 Bft)
11.07.2013 19:10 17,6 C 67 % 1021,0 hPa 0,0 l/m 1,8 km/h (1 Bft) O 90 11,4 C 19,7 C 0,0 km/h (0 Bft)
11.07.2013 19:15 17,7 C 67 % 1021,0 hPa 0,0 l/m 1,6 km/h (1 Bft) O 90 11,5 C 19,7 C 0,0 km/h (0 Bft)
11.07.2013 19:20 18,0 C 68 % 1021,0 hPa 0,0 l/m 1,0 km/h (0 Bft) N-NO 22 12,0 C 20,1 C 0,0 km/h (0 Bft)
11.07.2013 19:25 18,1 C 69 % 1020,9 hPa 0,0 l/m 1,3 km/h (1 Bft) N 360 12,3 C 21,0 C 2,9 km/h (1 Bft)
11.07.2013 19:30 18,2 C 69 % 1020,9 hPa 0,0 l/m 0,8 km/h (0 Bft) O 90 12,4 C 21,1 C 0,0 km/h (0 Bft)
11.07.2013 19:35 18,2 C 69 % 1020,9 hPa 0,0 l/m 0,6 km/h (0 Bft) N 360 12,4 C 21,4 C 2,9 km/h (1 Bft)
11.07.2013 19:40 18,4 C 69 % 1020,9 hPa 0,0 l/m 1,1 km/h (1 Bft) NO 45 12,6 C 22,1 C 3,2 km/h (1 Bft)
11.07.2013 19:45 18,3 C 66 % 1021,1 hPa 0,0 l/m 1,8 km/h (1 Bft) O 90 11,8 C 22,3 C 1,9 km/h (1 Bft)
11.07.2013 19:50 18,0 C 65 % 1021,1 hPa 0,0 l/m 1,9 km/h (1 Bft) N 360 11,3 C 22,0 C 0,0 km/h (0 Bft)
11.07.2013 19:55 18,0 C 64 % 1021,1 hPa 0,0 l/m 1,8 km/h (1 Bft) O 90 11,1 C 21,4 C 2,6 km/h (1 Bft)
11.07.2013 20:00 17,8 C 66 % 1021,1 hPa 0,0 l/m 1,0 km/h (0 Bft) O 90 11,4 C 21,6 C 0,0 km/h (0 Bft)
11.07.2013 20:05 17,8 C 67 % 1021,1 hPa 0,0 l/m 0,5 km/h (0 Bft) N-NO 22 11,6 C 21,8 C 0,0 km/h (0 Bft)
11.07.2013 20:10 17,4 C 66 % 1021,1 hPa 0,0 l/m 1,0 km/h (0 Bft) N 360 11,0 C 20,9 C 2,7 km/h (1 Bft)
11.07.2013 20:15 17,2 C 67 % 1021,1 hPa 0,0 l/m 1,4 km/h (1 Bft) NO 45 11,0 C 20,0 C 3,2 km/h (1 Bft)
11.07.2013 20:20 16,9 C 66 % 1021,1 hPa 0,0 l/m 1,6 km/h (1 Bft) N-NO 22 10,5 C 18,9 C 2,4 km/h (1 Bft)
11.07.2013 20:25 16,7 C 65 % 1021,3 hPa 0,0 l/m 1,8 km/h (1 Bft) N-NW 337 10,1 C 18,4 C 3,4 km/h (1 Bft)
11.07.2013 20:30 16,6 C 63 % 1021,3 hPa 0,0 l/m 1,8 km/h (1 Bft) NO 45 9,5 C 17,7 C 1,9 km/h (1 Bft)
11.07.2013 20:35 16,4 C 63 % 1021,3 hPa 0,0 l/m 1,6 km/h (1 Bft) NO 45 9,3 C 17,4 C 2,4 km/h (1 Bft)
11.07.2013 20:40 16,2 C 63 % 1021,3 hPa 0,0 l/m 1,0 km/h (0 Bft) S 180 9,1 C 17,0 C 2,3 km/h (1 Bft)
11.07.2013 20:45 16,1 C 62 % 1021,4 hPa 0,0 l/m 1,0 km/h (0 Bft) N-NO 22 8,8 C 16,7 C 0,0 km/h (0 Bft)
11.07.2013 20:50 16,1 C 63 % 1021,4 hPa 0,0 l/m 1,3 km/h (1 Bft) N 360 9,1 C 16,5 C 0,0 km/h (0 Bft)
11.07.2013 20:55 15,8 C 65 % 1021,4 hPa 0,0 l/m 0,8 km/h (0 Bft) N 360 9,2 C 16,3 C 0,0 km/h (0 Bft)
11.07.2013 21:00 15,7 C 65 % 1021,4 hPa 0,0 l/m 0,0 km/h (0 Bft) N 360 9,1 C 16,1 C 0,0 km/h (0 Bft)
11.07.2013 21:05 15,6 C 66 % 1021,5 hPa 0,0 l/m 0,2 km/h (0 Bft) W-NW 292 9,3 C 16,0 C 0,0 km/h (0 Bft)
11.07.2013 21:10 15,5 C 65 % 1021,5 hPa 0,0 l/m 0,2 km/h (0 Bft) W-NW 292 8,9 C 15,8 C 0,0 km/h (0 Bft)
11.07.2013 21:15 15,3 C 65 % 1021,5 hPa 0,0 l/m 0,2 km/h (0 Bft) O-NO 67 8,8 C 15,6 C 0,0 km/h (0 Bft)
11.07.2013 21:20 15,0 C 66 % 1021,5 hPa 0,0 l/m 0,0 km/h (0 Bft) O-NO 67 8,7 C 15,3 C 0,0 km/h (0 Bft)
11.07.2013 21:25 14,8 C 67 % 1021,6 hPa 0,0 l/m 0,2 km/h (0 Bft) W-NW 292 8,7 C 15,0 C 0,0 km/h (0 Bft)
11.07.2013 21:30 14,8 C 66 % 1021,6 hPa 0,0 l/m 1,0 km/h (0 Bft) NO 45 8,5 C 14,7 C 2,7 km/h (1 Bft)
11.07.2013 21:35 14,6 C 67 % 1021,6 hPa 0,0 l/m 1,3 km/h (1 Bft) O 90 8,5 C 14,5 C 2,6 km/h (1 Bft)
11.07.2013 21:40 14,6 C 66 % 1021,6 hPa 0,0 l/m 1,3 km/h (1 Bft) O 90 8,3 C 14,1 C 2,3 km/h (1 Bft)
11.07.2013 21:45 14,5 C 67 % 1021,8 hPa 0,0 l/m 1,1 km/h (1 Bft) O 90 8,4 C 14,0 C 2,3 km/h (1 Bft)
11.07.2013 21:50 14,4 C 68 % 1021,8 hPa 0,0 l/m 1,4 km/h (1 Bft) O-NO 67 8,6 C 14,0 C 0,0 km/h (0 Bft)
11.07.2013 21:55 14,3 C 69 % 1021,8 hPa 0,0 l/m 1,0 km/h (0 Bft) O-NO 67 8,7 C 14,0 C 0,0 km/h (0 Bft)
11.07.2013 22:00 14,0 C 71 % 1021,8 hPa 0,0 l/m 0,2 km/h (0 Bft) NO 45 8,8 C 13,9 C 0,0 km/h (0 Bft)
11.07.2013 22:05 13,9 C 71 % 1021,9 hPa 0,0 l/m 0,5 km/h (0 Bft) O 90 8,7 C 13,8 C 1,9 km/h (1 Bft)
11.07.2013 22:10 13,6 C 72 % 1021,9 hPa 0,0 l/m 0,8 km/h (0 Bft) O 90 8,6 C 13,6 C 1,9 km/h (1 Bft)
11.07.2013 22:15 13,5 C 72 % 1021,9 hPa 0,0 l/m 1,0 km/h (0 Bft) O 90 8,6 C 13,3 C 0,0 km/h (0 Bft)
11.07.2013 22:20 13,3 C 72 % 1021,9 hPa 0,0 l/m 0,6 km/h (0 Bft) O 90 8,4 C 12,9 C 2,9 km/h (1 Bft)
11.07.2013 22:25 13,2 C 73 % 1021,9 hPa 0,0 l/m 1,1 km/h (1 Bft) NO 45 8,5 C 12,8 C 2,6 km/h (1 Bft)
11.07.2013 22:30 13,0 C 74 % 1021,9 hPa 0,0 l/m 2,6 km/h (1 Bft) O-NO 67 8,5 C 12,6 C 4,0 km/h (1 Bft)
11.07.2013 22:35 12,9 C 75 % 1021,9 hPa 0,0 l/m 2,6 km/h (1 Bft) O 90 8,6 C 12,5 C 3,1 km/h (1 Bft)
11.07.2013 22:40 12,7 C 76 % 1021,9 hPa 0,0 l/m 3,2 km/h (1 Bft) O 90 8,6 C 12,3 C 2,7 km/h (1 Bft)
11.07.2013 22:45 12,6 C 76 % 1022,1 hPa 0,0 l/m 3,7 km/h (1 Bft) O 90 8,5 C 12,1 C 4,3 km/h (1 Bft)
11.07.2013 22:50 12,7 C 76 % 1022,1 hPa 0,0 l/m 3,4 km/h (1 Bft) O 90 8,6 C 12,1 C 0,0 km/h (0 Bft)
11.07.2013 22:55 12,4 C 76 % 1022,1 hPa 0,0 l/m 2,3 km/h (1 Bft) N-NO 22 8,3 C 12,0 C 0,0 km/h (0 Bft)
11.07.2013 23:00 12,1 C 77 % 1022,1 hPa 0,0 l/m 0,5 km/h (0 Bft) NO 45 8,2 C 11,7 C 2,1 km/h (1 Bft)
11.07.2013 23:05 12,1 C 77 % 1022,1 hPa 0,0 l/m 0,3 km/h (0 Bft) N-NO 22 8,2 C 11,6 C 0,0 km/h (0 Bft)
11.07.2013 23:10 11,9 C 77 % 1022,1 hPa 0,0 l/m 0,3 km/h (0 Bft) NO 45 8,0 C 11,3 C 0,0 km/h (0 Bft)
11.07.2013 23:15 11,8 C 78 % 1022,1 hPa 0,0 l/m 0,0 km/h (0 Bft) NO 45 8,1 C 11,1 C 0,0 km/h (0 Bft)
11.07.2013 23:20 11,5 C 78 % 1022,1 hPa 0,0 l/m 0,0 km/h (0 Bft) NO 45 7,8 C 11,0 C 0,0 km/h (0 Bft)
11.07.2013 23:25 11,7 C 78 % 1022,2 hPa 0,0 l/m 0,3 km/h (0 Bft) O 90 8,0 C 10,8 C 2,3 km/h (1 Bft)
11.07.2013 23:30 11,8 C 78 % 1022,2 hPa 0,0 l/m 1,6 km/h (1 Bft) O-NO 67 8,1 C 10,9 C 1,8 km/h (1 Bft)
11.07.2013 23:35 11,6 C 78 % 1022,2 hPa 0,0 l/m 1,4 km/h (1 Bft) O 90 7,9 C 10,8 C 0,0 km/h (0 Bft)
11.07.2013 23:40 10,9 C 79 % 1022,2 hPa 0,0 l/m 0,2 km/h (0 Bft) O-NO 67 7,4 C 10,4 C 0,0 km/h (0 Bft)
11.07.2013 23:45 10,7 C 79 % 1022,2 hPa 0,0 l/m 0,0 km/h (0 Bft) O 90 7,2 C 10,1 C 0,0 km/h (0 Bft)
11.07.2013 23:50 11,1 C 80 % 1022,2 hPa 0,0 l/m 0,0 km/h (0 Bft) O 90 7,8 C 9,8 C 1,6 km/h (1 Bft)
11.07.2013 23:55 10,9 C 80 % 1022,2 hPa 0,0 l/m 0,0 km/h (0 Bft) NO 45 7,6 C 9,7 C 0,0 km/h (0 Bft)
_ Min-Zeit 23:45 17:45 06:00 - 23:55 - - 23:45 23:55 23:55
Minimum _ 10,7 C 58 % 1018,9 hPa - 0,0 km/h (0 Bft) - - 7,2 C 9,7 C 0,0 km/h (0 Bft)
_ Max-Zeit 17:30 07:10 23:55 23:55 01:15 - - 12:15 19:45 13:20
Maximum _ 19,9 C 86 % 1022,2 hPa 0,0 l/m 4,7 km/h
NO (1 Bft)
- - 13,1 C 22,3 C 10,5 km/h
W-NW (2 Bft)
Durchschnitt _ 15,7 C 75 % 1020,5 hPa #0,0 l/m 1,4 km/h (1 Bft) O - 11,3 C 16,2 C 2,0 km/h (1 Bft)